| time (UTC) | temp C | wind direction | speed KPH | gust KPH | rain 1hr cm | rain 24hr cm | rain mn cm | humidity % | barometer mb |
| 20260904191005 | 27 | 273 | 1.6 | 11.3 | 0.00 | 0.00 | 0.00 | 38 | 1014.3 |
| 20260904185938 | 27 | 205 | 1.6 | 6.4 | 0.00 | 0.00 | 0.00 | 38 | 1014.2 |
| 20260904185002 | 27 | 209 | 1.6 | 8.0 | 0.00 | 0.00 | 0.00 | 38 | 1014.1 |
| 20260904183929 | 28 | 286 | 0.0 | 8.0 | 0.00 | 0.00 | 0.00 | 37 | 1014.1 |
| 20260904182916 | 28 | 248 | 1.6 | 3.2 | 0.00 | 0.00 | 0.00 | 36 | 1014.1 |
| 20260904181931 | 28 | 277 | 0.0 | 0.0 | 0.00 | 0.00 | 0.00 | 36 | 1014.0 |
| 20260904180909 | 29 | 283 | 1.6 | 0.0 | 0.00 | 0.00 | 0.00 | 35 | 1013.9 |
| 20260904175840 | 29 | 269 | 3.2 | 20.9 | 0.00 | 0.00 | 0.00 | 34 | 1013.9 |
| 20260904174832 | 29 | 285 | 4.8 | 20.9 | 0.00 | 0.00 | 0.00 | 33 | 1013.8 |
| 20260904173835 | 30 | 265 | 4.8 | 19.3 | 0.00 | 0.00 | 0.00 | 33 | 1013.7 |
| 20260904172803 | 30 | 267 | 6.4 | 29.0 | 0.00 | 0.00 | 0.00 | 32 | 1013.7 |
| 20260904171815 | 30 | 306 | 9.7 | 29.0 | 0.00 | 0.00 | 0.00 | 32 | 1013.6 |
| 20260904170800 | 30 | 282 | 11.3 | 27.4 | 0.00 | 0.00 | 0.00 | 32 | 1013.6 |
| 20260904164659 | 30 | 215 | 9.7 | 27.4 | 0.00 | 0.00 | 0.00 | 31 | 1013.5 |
| 20260904163715 | 30 | 259 | 9.7 | 27.4 | 0.00 | 0.00 | 0.00 | 30 | 1013.5 |
| 20260904162721 | 31 | 245 | 6.4 | 24.1 | 0.00 | 0.00 | 0.00 | 30 | 1013.5 |
| 20260904161708 | 31 | 261 | 8.0 | 40.2 | 0.00 | 0.00 | 0.00 | 29 | 1013.5 |
| 20260904160641 | 31 | 259 | 9.7 | 40.2 | 0.00 | 0.00 | 0.00 | 28 | 1013.6 |
| 20260904155637 | 31 | 280 | 14.5 | 37.0 | 0.00 | 0.00 | 0.00 | 28 | 1013.5 |
| 20260904154655 | 31 | 278 | 8.0 | 29.0 | 0.00 | 0.00 | 0.00 | 28 | 1013.5 |
| 20260904153708 | 31 | 240 | 12.9 | 33.8 | 0.00 | 0.00 | 0.00 | 28 | 1013.4 |
| 20260904151539 | 32 | 255 | 14.5 | 35.4 | 0.00 | 0.00 | 0.00 | 27 | 1013.4 |
| 20260904150523 | 32 | 278 | 9.7 | 35.4 | 0.00 | 0.00 | 0.00 | 28 | 1013.2 |
| 20260904145517 | 32 | 200 | 6.4 | 35.4 | 0.00 | 0.00 | 0.00 | 28 | 1013.3 |
| 20260904144518 | 32 | 267 | 12.9 | 35.4 | 0.00 | 0.00 | 0.00 | 28 | 1013.4 |
| 20260904143538 | 32 | 285 | 11.3 | 30.6 | 0.00 | 0.00 | 0.00 | 28 | 1013.4 |
| 20260904142529 | 32 | 266 | 12.9 | 38.6 | 0.00 | 0.00 | 0.00 | 28 | 1013.4 |
| 20260904141457 | 32 | 281 | 9.7 | 38.6 | 0.00 | 0.00 | 0.00 | 28 | 1013.6 |
| 20260904140440 | 32 | 270 | 8.0 | 30.6 | 0.00 | 0.00 | 0.00 | 28 | 1013.6 |
| 20260904134304 | 32 | 268 | 9.7 | 27.4 | 0.00 | 0.00 | 0.00 | 28 | 1013.8 |
| 20260904133256 | 32 | 205 | 12.9 | 41.8 | 0.00 | 0.00 | 0.00 | 29 | 1013.9 |
| 20260904132249 | 32 | 244 | 14.5 | 41.8 | 0.00 | 0.00 | 0.00 | 28 | 1014.1 |
| 20260904131229 | 32 | 275 | 6.4 | 25.7 | 0.00 | 0.00 | 0.00 | 28 | 1014.1 |
| 20260904130254 | 32 | 273 | 9.7 | 27.4 | 0.00 | 0.00 | 0.00 | 28 | 1014.2 |
| 20260904124151 | 32 | 247 | 12.9 | 35.4 | 0.00 | 0.00 | 0.00 | 29 | 1014.3 |
| 20260904122014 | 31 | 261 | 9.7 | 32.2 | 0.00 | 0.00 | 0.00 | 29 | 1014.6 |
| 20260904121005 | 31 | 207 | 9.7 | 32.2 | 0.00 | 0.00 | 0.00 | 31 | 1014.9 |
| 20260904114856 | 31 | 303 | 9.7 | 27.4 | 0.00 | 0.00 | 0.00 | 32 | 1015.0 |
| 20260904112741 | 31 | 298 | 8.0 | 37.0 | 0.00 | 0.00 | 0.00 | 32 | 1015.4 |
| 20260904111715 | 30 | 247 | 8.0 | 30.6 | 0.00 | 0.00 | 0.00 | 34 | 1015.7 |
| 20260904110734 | 30 | 281 | 11.3 | 33.8 | 0.00 | 0.00 | 0.00 | 35 | 1015.8 |
| 20260904105731 | 30 | 264 | 9.7 | 33.8 | 0.00 | 0.00 | 0.00 | 35 | 1015.8 |
| 20260904104724 | 29 | 167 | 9.7 | 30.6 | 0.00 | 0.00 | 0.00 | 36 | 1015.9 |
| 20260904103656 | 29 | 167 | 3.2 | 24.1 | 0.00 | 0.00 | 0.00 | 38 | 1016.0 |
| 20260904102655 | 29 | 288 | 6.4 | 20.9 | 0.00 | 0.00 | 0.00 | 38 | 1016.2 |
| 20260904101704 | 29 | 172 | 9.7 | 27.4 | 0.00 | 0.00 | 0.00 | 38 | 1016.4 |
| 20260904094500 | 28 | 180 | 8.0 | 24.1 | 0.00 | 0.00 | 0.00 | 39 | 1016.9 |
| 20260904092425 | 27 | 165 | 9.7 | 25.7 | 0.00 | 0.00 | 0.00 | 42 | 1017.1 |
| 20260904090306 | 27 | 190 | 6.4 | 17.7 | 0.00 | 0.00 | 0.00 | 42 | 1017.6 |
| 20260904085241 | 27 | 202 | 6.4 | 17.7 | 0.00 | 0.00 | 0.00 | 43 | 1017.7 |
| 20260904084252 | 27 | 210 | 4.8 | 16.1 | 0.00 | 0.00 | 0.00 | 43 | 1017.8 |
| 20260904083313 | 26 | 230 | 6.4 | 16.1 | 0.00 | 0.00 | 0.00 | 45 | 1017.9 |
| 20260904082241 | 26 | 174 | 4.8 | 12.9 | 0.00 | 0.00 | 0.00 | 44 | 1017.9 |
| 20260904074940 | 24 | 279 | 4.8 | 12.9 | 0.00 | 0.00 | 0.00 | 47 | 1018.1 |
| 20260904073939 | 23 | 196 | 4.8 | 12.9 | 0.00 | 0.00 | 0.00 | 48 | 1018.1 |
| 20260904071803 | 22 | 177 | 3.2 | 14.5 | 0.00 | 0.00 | 0.00 | 51 | 1018.2 |
| 20260904070746 | 22 | 216 | 4.8 | 14.5 | 0.00 | 0.00 | 0.00 | 53 | 1018.3 |
| 20260904065752 | 21 | 166 | 6.4 | 12.9 | 0.00 | 0.00 | 0.00 | 54 | 1018.4 |
| 20260904064742 | 20 | 176 | 4.8 | 12.9 | 0.00 | 0.00 | 0.00 | 57 | 1018.5 |
| 20260904063758 | 20 | 180 | 6.4 | 12.9 | 0.00 | 0.00 | 0.00 | 58 | 1018.5 |
| 20260904062758 | 19 | 178 | 6.4 | 12.9 | 0.00 | 0.00 | 0.00 | 59 | 1018.4 |
| 20260904061736 | 18 | 165 | 6.4 | 12.9 | 0.00 | 0.00 | 0.00 | 60 | 1018.5 |
| 20260904060740 | 18 | 180 | 4.8 | 11.3 | 0.00 | 0.00 | 0.00 | 60 | 1018.6 |
| 20260904055755 | 18 | 189 | 4.8 | 11.3 | 0.00 | 0.00 | 0.00 | 60 | 1018.7 |
| 20260904054820 | 18 | 214 | 3.2 | 8.0 | 0.00 | 0.00 | 0.00 | 60 | 1018.7 |
| 20260904053759 | 18 | 182 | 4.8 | 11.3 | 0.00 | 0.00 | 0.00 | 60 | 1018.7 |
| 20260904052801 | 18 | 244 | 3.2 | 9.7 | 0.00 | 0.00 | 0.00 | 60 | 1018.7 |
| 20260904051818 | 18 | 186 | 1.6 | 8.0 | 0.00 | 0.00 | 0.00 | 60 | 1018.8 |
| 20260904050827 | 18 | 171 | 3.2 | 4.8 | 0.00 | 0.00 | 0.00 | 60 | 1018.8 |
| 20260904045824 | 18 | 167 | 4.8 | 11.3 | 0.00 | 0.00 | 0.00 | 60 | 1018.7 |
| 20260904044757 | 18 | 180 | 4.8 | 9.7 | 0.00 | 0.00 | 0.00 | 60 | 1018.7 |
| 20260904043816 | 18 | 172 | 3.2 | 9.7 | 0.00 | 0.00 | 0.00 | 59 | 1018.7 |
| 20260904042832 | 18 | 178 | 1.6 | 6.4 | 0.00 | 0.00 | 0.00 | 59 | 1018.8 |
| 20260904041805 | 18 | 172 | 0.0 | 3.2 | 0.00 | 0.00 | 0.00 | 59 | 1019.0 |
| 20260904035611 | 19 | 178 | 0.0 | 0.0 | 0.00 | 0.00 | 0.00 | 58 | 1019.2 |
| 20260904034615 | 19 | 178 | 0.0 | 0.0 | 0.00 | 0.00 | 0.00 | 57 | 1019.1 |
| 20260904033622 | 19 | 178 | 0.0 | 0.0 | 0.00 | 0.00 | 0.00 | 57 | 1019.2 |
| 20260904032603 | 19 | 178 | 0.0 | 0.0 | 0.00 | 0.00 | 0.00 | 57 | 1019.4 |
| 20260904031538 | 19 | 178 | 0.0 | 0.0 | 0.00 | 0.00 | 0.00 | 57 | 1019.4 |
| 20260904030542 | 19 | 178 | 0.0 | 0.0 | 0.00 | 0.00 | 0.00 | 57 | 1019.4 |
| 20260904025529 | 19 | 199 | 1.6 | 9.7 | 0.00 | 0.00 | 0.00 | 56 | 1019.3 |
| 20260904024522 | 20 | 225 | 1.6 | 9.7 | 0.00 | 0.00 | 0.00 | 56 | 1019.3 |
| 20260904023534 | 20 | 207 | 1.6 | 4.8 | 0.00 | 0.00 | 0.00 | 56 | 1019.5 |
| 20260904022521 | 20 | 180 | 1.6 | 4.8 | 0.00 | 0.00 | 0.00 | 55 | 1019.7 |
| 20260904021525 | 20 | 178 | 1.6 | 6.4 | 0.00 | 0.00 | 0.00 | 55 | 1019.7 |
| 20260904015414 | 20 | 250 | 0.0 | 0.0 | 0.00 | 0.00 | 0.00 | 56 | 1020.0 |
| 20260904014437 | 20 | 250 | 0.0 | 0.0 | 0.00 | 0.00 | 0.00 | 56 | 1020.0 |
| 20260904013424 | 20 | 250 | 0.0 | 1.6 | 0.00 | 0.00 | 0.00 | 56 | 1020.1 |
| 20260904012400 | 20 | 223 | 0.0 | 0.0 | 0.00 | 0.00 | 0.00 | 56 | 1020.0 |
| 20260904011352 | 20 | 223 | 0.0 | 0.0 | 0.00 | 0.00 | 0.00 | 56 | 1020.1 |
| 20260904005149 | 20 | 223 | 0.0 | 0.0 | 0.00 | 0.00 | 0.00 | 57 | 1020.0 |
| 20260904004134 | 19 | 223 | 0.0 | 0.0 | 0.00 | 0.00 | 0.00 | 57 | 1020.1 |
| 20260904002019 | 18 | 213 | 0.0 | 4.8 | 0.00 | 0.00 | 0.00 | 58 | 1020.0 |
| 20260904001002 | 18 | 211 | 0.0 | 0.0 | 0.00 | 0.00 | 0.00 | 58 | 1020.0 |
| 20260904000006 | 18 | 211 | 0.0 | 0.0 | 0.00 | 0.00 | 0.00 | 57 | 1020.2 |
| 20260903234932 | 18 | 211 | 0.0 | 0.0 | 0.00 | 0.00 | 0.00 | 57 | 1020.3 |
| 20260903233940 | 19 | 211 | 0.0 | 0.0 | 0.00 | 0.00 | 0.00 | 57 | 1020.4 |
| 20260903232935 | 19 | 211 | 0.0 | 0.0 | 0.00 | 0.00 | 0.00 | 56 | 1020.6 |
| 20260903231951 | 19 | 211 | 0.0 | 0.0 | 0.00 | 0.00 | 0.00 | 56 | 1020.6 |
| 20260903231011 | 19 | 211 | 0.0 | 0.0 | 0.00 | 0.00 | 0.00 | 56 | 1020.6 |
| 20260903223737 | 20 | 211 | 0.0 | 0.0 | 0.00 | 0.00 | 0.00 | 52 | 1020.7 |
| 20260903222756 | 20 | 211 | 0.0 | 0.0 | 0.00 | 0.00 | 0.00 | 52 | 1020.7 |
| 20260903221742 | 21 | 211 | 0.0 | 0.0 | 0.00 | 0.00 | 0.00 | 51 | 1020.7 |
| 20260903220738 | 21 | 211 | 0.0 | 0.0 | 0.00 | 0.00 | 0.00 | 51 | 1020.7 |
| 20260903214607 | 21 | 232 | 1.6 | 8.0 | 0.00 | 0.00 | 0.00 | 49 | 1020.8 |
| 20260903213613 | 21 | 224 | 0.0 | 4.8 | 0.00 | 0.00 | 0.00 | 50 | 1020.6 |
| 20260903212559 | 21 | 278 | 0.0 | 0.0 | 0.00 | 0.00 | 0.00 | 50 | 1020.7 |
| 20260903211603 | 22 | 278 | 0.0 | 0.0 | 0.00 | 0.00 | 0.00 | 48 | 1020.6 |
| 20260903210543 | 22 | 278 | 0.0 | 0.0 | 0.00 | 0.00 | 0.00 | 46 | 1020.5 |
| 20260903205606 | 23 | 278 | 0.0 | 0.0 | 0.00 | 0.00 | 0.00 | 44 | 1020.5 |
| 20260903204537 | 23 | 278 | 0.0 | 0.0 | 0.00 | 0.00 | 0.00 | 43 | 1020.4 |
| 20260903203539 | 23 | 274 | 0.0 | 4.8 | 0.00 | 0.00 | 0.00 | 43 | 1020.3 |
| 20260903202553 | 23 | 252 | 0.0 | 3.2 | 0.00 | 0.00 | 0.00 | 42 | 1020.5 |
| 20260903201545 | 23 | 223 | 0.0 | 1.6 | 0.00 | 0.00 | 0.00 | 42 | 1020.5 |
| 20260903195417 | 23 | 221 | 0.0 | 3.2 | 0.00 | 0.00 | 0.00 | 40 | 1020.5 |
| 20260903194411 | 24 | 221 | 0.0 | 0.0 | 0.00 | 0.00 | 0.00 | 39 | 1020.5 |
| 20260903193422 | 24 | 215 | 0.0 | 3.2 | 0.00 | 0.00 | 0.00 | 39 | 1020.6 |
| 20260903192441 | 25 | 229 | 0.0 | 1.6 | 0.00 | 0.00 | 0.00 | 38 | 1020.6 |
| 20260903191448 | 25 | 227 | 0.0 | 3.2 | 0.00 | 0.00 | 0.00 | 38 | 1020.6 |